sat.trackr.live / text

‹ back to catalog

FGN-100-D2

NORAD 66299 · 2025-248G

PAYLOAD ACTIVE UNKNOWN

§ Identity

Operator
Country
TURK
Launch date
2025-11-02
Launch site
AFETR
Launch vehicle
Mass (kg)
RCS (m²)

External: N2YO · Heavens-Above · Gunter

§ Orbital elements

Epoch: 2026-05-24T13:36:15.162624Z

Period
94.72 min
Inclination
45.4017°
Eccentricity
0.0006442
Mean motion
15.20262435 rev/d
Perigee alt
500.6 km
Apogee alt
509.5 km
Semi-major
6,883.2 km
B*
1.8035e-4
RAAN
247.7406°
Arg perigee
272.9910°
Mean anomaly
87.0239°
Rev number
3,092

§ Raw data

FGN-100-D21 66299U 25248G   26144.56684216  .00003704  00000+0  18035-3 0  99912 66299  45.4017 247.7406 0006442 272.9910  87.0239 15.20262435 30924

JSON: /api/v1/satellites/66299 · /tle

For live sub-satellite position, see the globe view (requires WebGL).

§ Visibility from observer

Set your observer location to see the next 7 days of passes ≥ 10°. The values pass through the URL so the page stays shareable.

No JS? Fill the form by hand. The geolocation button needs JavaScript.